N1JFY Weather Reports


time (UTC)temp
C
wind
direction
speed
KPH
gust
KPH
rain 1hr
cm
rain 24hr
cm
rain mn
cm
humidity
%
barometer
mb
20240614124542 18 215 6.4 19.3 0.00 0.00 0.00 83 1005.4
20240614123040 17 207 3.2 22.5 0.00 0.00 0.00 84 1005.3
20240614121540 17 211 6.4 17.7 0.00 0.00 0.00 84 1005.4
20240614120041 17 167 3.2 16.1 0.00 0.00 0.00 85 1005.6
20240614114559 16 241 8.0 20.9 0.00 0.00 0.00 84 1005.8
20240614113136 16 243 6.4 25.7 0.00 0.00 0.00 84 1005.9
20240614111548 16 194 3.2 19.3 0.00 0.00 0.00 85 1005.5
20240614110033 16 201 4.8 20.9 0.00 0.00 0.00 85 1005.7
20240614104532 16 213 3.2 17.7 0.00 0.00 0.00 85 1005.7
20240614103031 16 227 3.2 19.3 0.00 0.00 0.00 84 1005.9
20240614101531 16 209 1.6 20.9 0.00 0.00 0.00 84 1005.9
20240614100030 16 165 4.8 19.3 0.00 0.00 0.00 83 1005.8
20240614094529 15 198 3.2 19.3 0.00 0.00 0.00 83 1005.8
20240614093028 15 208 8.0 20.9 0.00 0.00 0.00 83 1005.6
20240614091553 15 153 6.4 22.5 0.00 0.00 0.00 82 1005.3
20240614090024 15 157 4.8 20.9 0.00 0.00 0.00 82 1005.6
20240614084523 15 211 3.2 16.1 0.00 0.00 0.00 82 1005.5
20240614083021 15 213 3.2 19.3 0.00 0.00 0.00 82 1005.7
20240614081525 15 198 3.2 14.5 0.00 0.00 0.00 81 1005.7
20240614080019 15 177 3.2 16.1 0.00 0.00 0.00 80 1005.9
20240614074521 15 182 3.2 16.1 0.00 0.00 0.00 80 1006.1
20240614073018 15 204 4.8 14.5 0.00 0.00 0.00 80 1006.3
20240614071517 15 153 1.6 14.5 0.00 0.00 0.00 80 1006.5
20240614070009 15 207 6.4 17.7 0.00 0.00 0.00 79 1006.7
20240614064508 16 196 3.2 17.7 0.00 0.00 0.00 79 1006.9
20240614063004 16 182 3.2 14.5 0.00 0.00 0.00 78 1007.1
20240614061507 16 204 3.2 19.3 0.00 0.00 0.00 78 1007.4
20240614060001 16 213 4.8 17.7 0.00 0.00 0.00 77 1007.6
20240614054604 16 176 6.4 17.7 0.00 0.00 0.00 76 1007.4
20240614053102 16 192 4.8 16.1 0.00 0.00 0.00 78 1007.5
20240614051554 16 181 3.2 17.7 0.00 0.00 0.00 78 1007.8
20240614050111 16 196 3.2 16.1 0.00 0.00 0.00 79 1008.1
20240614044550 16 215 4.8 24.1 0.00 0.00 0.00 78 1007.9
20240614043049 16 228 4.8 12.9 0.00 0.00 0.00 77 1007.8
20240614041549 16 189 1.6 17.7 0.00 0.00 0.00 78 1008.0
20240614040101 16 164 1.6 12.9 0.00 0.00 0.00 78 1008.0
20240614034544 17 199 1.6 16.1 0.00 0.00 0.00 77 1008.0
20240614033043 17 225 1.6 16.1 0.00 0.00 0.00 76 1008.3
20240614031543 17 219 6.4 12.9 0.00 0.00 0.00 75 1008.4
20240614030043 18 174 4.8 14.5 0.00 0.00 0.00 75 1008.5
20240614024537 18 187 6.4 16.1 0.00 0.00 0.00 75 1008.7
20240614023048 18 189 3.2 11.3 0.00 0.00 0.00 76 1009.0
20240614021539 18 217 3.2 16.1 0.00 0.00 0.00 75 1008.9
20240614020037 18 180 3.2 17.7 0.00 0.00 0.00 75 1009.1
20240614014539 18 182 1.6 12.9 0.00 0.00 0.00 74 1009.0
20240614013036 18 174 1.6 11.3 0.00 0.00 0.00 72 1009.0
20240614011533 19 186 1.6 14.5 0.00 0.00 0.00 71 1009.3
20240614010032 19 196 1.6 8.0 0.00 0.00 0.00 70 1009.5
20240614004531 19 196 0.0 8.0 0.00 0.03 0.00 68 1009.4
20240614003038 20 193 0.0 8.0 0.00 0.03 0.00 67 1009.3
20240614001537 20 234 1.6 11.3 0.00 0.03 0.00 66 1009.3
20240614000029 20 209 1.6 9.7 0.00 0.03 0.00 66 1009.3
20240613234530 20 157 0.0 0.0 0.00 0.03 0.00 65 1009.4
20240613233029 21 157 0.0 8.0 0.00 0.03 0.00 60 1009.3
20240613231529 21 211 0.0 6.4 0.00 0.03 0.00 58 1009.1
20240613230039 21 229 0.0 9.7 0.00 0.03 0.00 57 1009.2
20240613224539 22 180 3.2 12.9 0.00 0.03 0.00 57 1009.2
20240613223028 22 229 0.0 12.9 0.00 0.03 0.00 56 1009.3
20240613221526 22 195 4.8 19.3 0.00 0.03 0.00 53 1009.2
20240613220032 22 221 4.8 19.3 0.00 0.03 0.00 55 1009.4
20240613214523 22 224 1.6 17.7 0.00 0.03 0.00 55 1009.4
20240613213022 22 255 1.6 17.7 0.00 0.03 0.00 57 1009.5
20240613211521 22 221 3.2 11.3 0.00 0.03 0.00 57 1009.5
20240613210023 22 190 1.6 11.3 0.00 0.03 0.00 56 1009.6
20240613204521 23 221 1.6 20.9 0.00 0.03 0.00 53 1009.5
20240613203020 23 296 6.4 25.7 0.00 0.03 0.00 51 1009.5
20240613201518 23 232 3.2 19.3 0.00 0.03 0.00 51 1009.6
20240613200017 23 210 1.6 17.7 0.00 0.03 0.00 51 1009.7
20240613194514 23 244 3.2 17.7 0.00 0.03 0.00 50 1009.9
20240613193011 23 225 6.4 19.3 0.00 0.03 0.00 56 1010.3
20240613191509 22 240 6.4 22.5 0.00 0.03 0.00 55 1010.5
20240613190011 22 205 4.8 17.7 0.00 0.03 0.00 54 1010.5
20240613184519 22 234 1.6 25.7 0.00 0.03 0.00 54 1010.6
20240613183006 22 271 6.4 24.1 0.00 0.03 0.00 53 1010.6
20240613181505 22 207 3.2 19.3 0.00 0.03 0.00 54 1010.7
20240613180006 22 224 0.0 17.7 0.00 0.03 0.00 56 1010.8
20240613174501 22 247 6.4 25.7 0.00 0.03 0.00 56 1010.9
20240613173001 22 283 6.4 20.9 0.00 0.03 0.00 55 1010.9
20240613171558 22 227 4.8 22.5 0.00 0.03 0.00 55 1011.2
20240613170058 22 253 4.8 29.0 0.00 0.03 0.00 55 1011.3
20240613164553 21 217 9.7 27.4 0.00 0.03 0.00 57 1011.5
20240613163055 21 215 4.8 19.3 0.00 0.03 0.00 58 1011.7
20240613161550 21 246 3.2 14.5 0.00 0.03 0.00 58 1011.8
20240613160049 21 215 3.2 12.9 0.00 0.03 0.00 62 1011.7
20240613154618 21 207 3.2 20.9 0.00 0.03 0.00 63 1012.0
20240613153047 20 360 1.6 19.3 0.00 0.03 0.00 59 1012.0
20240613151608 20 229 4.8 20.9 0.00 0.03 0.00 57 1012.0
20240613150110 20 200 1.6 17.7 0.00 0.03 0.00 62 1012.0
20240613144559 20 251 3.2 16.1 0.00 0.03 0.00 61 1012.2
20240613143044 20 253 1.6 17.7 0.00 0.03 0.00 62 1012.2
20240613141539 19 178 6.4 17.7 0.00 0.03 0.00 66 1012.3
20240613140041 19 296 11.3 19.3 0.00 0.03 0.00 67 1012.2
20240613134543 18 244 3.2 11.3 0.00 0.03 0.00 68 1012.3
20240613133032 18 207 3.2 17.7 0.00 0.03 0.00 69 1012.5
20240613131534 18 292 0.0 12.9 0.00 0.03 0.00 67 1012.5
20240613130035 18 292 0.0 14.5 0.00 0.03 0.00 69 1012.5